Location: Hamilton
(43.2500°N, 79.8330°W)
Time: 18:32:59
(UTC-04:00)

Amateur Radio Satellites - All Passes

Search period start: 06 May 2016 18:02
Search period end: 07 May 2016 18:02
Location: Hamilton, 43.2500°N, 79.8330°W

Satellite Date Start Highest point End Downlink Frequencies (MHz)
Time Altitude Azimuth
YUBILEINY 06 May 18:03:40 18:10:50 30° 82° (E) 18:17:58 435.215
HORYU 2 06 May 18:23:50 18:26:44 17° 268° (W) 18:29:38 437.375
M-CUBED/EXP-1 PRIME 06 May 18:24:00 18:27:52 26° 62° (ENE) 18:31:39 437.505
MOZHAYETS 4 06 May 18:30:24 18:33:58 23° 294° (WNW) 18:37:32
CUTE-I 06 May 18:36:38 18:41:55 73° 73° (ENE) 18:47:14 437.470
AUBIESAT-1 06 May 18:38:44 18:42:43 30° 63° (ENE) 18:46:36 437.475
BRITE-PL 06 May 18:41:15 18:46:13 74° 75° (ENE) 18:51:38 437.365/2234.400
HO-68 06 May 18:44:28 18:49:00 18° 52° (NE) 18:53:31 435.675
CUBESAT XI-V 06 May 18:49:07 18:53:50 72° 101° (ESE) 18:58:32 437.345
BEESAT 3 06 May 18:55:06 18:58:51 41° 309° (NW) 19:02:38 437.485
Cosmos 2504 06 May 18:56:39 18:58:58 12° 75° (ENE) 19:01:16 435.465 / 435.565
NOAA 15 06 May 19:05:22 19:10:21 42° 261° (W) 19:15:24 137.62
DOVE 4 06 May 19:05:58 19:10:40 35° 68° (ENE) 19:15:28 437.250
BEESAT 2 06 May 19:10:35 19:14:27 47° 308° (NW) 19:18:20 435.950
LilacSat-2 06 May 19:18:53 19:22:32 39° 262° (W) 19:26:12 437.200
CINEMA 3 06 May 19:19:47 19:22:56 17° 62° (ENE) 19:26:05 145.822/145.860
Cubesat XI-IV 06 May 19:22:46 19:27:51 45° 261° (W) 19:32:57 437.490
NOAA 18 06 May 19:26:23 19:31:16 32° 263° (W) 19:36:12 137.9125
RS-15 06 May 19:27:40 19:31:40 12° 92° (E) 19:35:42 29.354- 29.394
GOMX 1 06 May 19:30:57 19:36:05 76° 258° (WSW) 19:41:33 467.674
CANX-2 06 May 19:40:04 19:43:21 22° 67° (ENE) 19:46:38 2200.000
AIST 2 06 May 19:40:16 19:43:43 26° 114° (ESE) 19:47:09 435.215
AO-85 06 May 19:42:37 19:46:13 20° 37° (NE) 19:49:36 145.980
Cosmos 2491 06 May 19:48:50 19:56:08 31° 278° (W) 20:03:24 435.465 / 435.565
M-CUBED/EXP-1 PRIME 06 May 19:57:49 20:02:13 38° 257° (WSW) 20:06:32 437.505
YUBILEINY 06 May 19:58:23 20:07:00 62° 282° (WNW) 20:15:39 435.215
CUTE 1.7 + AOD 2 06 May 20:11:13 20:15:10 41° 71° (ENE) 20:19:09 437.475
AUBIESAT-1 06 May 20:12:56 20:17:06 32° 258° (WSW) 20:21:09 437.475
STRAND 1 06 May 20:13:18 20:18:11 44° 99° (E) 20:23:03 437.568
CUTE-I 06 May 20:19:37 20:22:31 15° 270° (W) 20:25:27 437.470
BRITE-PL 06 May 20:22:46 20:25:23 14° 274° (W) 20:28:07 437.365/2234.400
COMPASS 1 06 May 20:26:08 20:29:49 32° 70° (ENE) 20:33:30 437.405
CUBESAT XI-V 06 May 20:28:13 20:30:38 14° 299° (WNW) 20:33:03 437.345
HO-68 06 May 20:28:32 20:35:42 83° 71° (ENE) 20:42:54 435.675
SEEDS 06 May 20:30:28 20:34:29 49° 73° (ENE) 20:38:31 437.485
FUNcube-1 06 May 20:34:38 20:36:39 13° 62° (ENE) 20:38:40 145.935
DOVE 4 06 May 20:43:43 20:48:19 32° 266° (W) 20:53:03 437.250
Cosmos 2504 06 May 20:43:47 20:50:58 77° 95° (E) 20:58:09 435.465 / 435.565
AAUSAT CUBESAT 2 06 May 20:52:15 20:56:13 50° 73° (ENE) 21:00:12 437.432
CINEMA 3 06 May 20:54:33 20:59:32 66° 258° (WSW) 21:04:31 145.822/145.860
UWE-3 06 May 20:56:15 21:00:21 32° 70° (ENE) 21:04:22 435.000/436.395/437.385
CUBEBUG 2 06 May 21:12:26 21:17:06 67° 74° (ENE) 21:21:41 437.445
CANX-2 06 May 21:15:14 21:19:02 33° 263° (W) 21:22:52 2200.000
ZACube-1 06 May 21:16:54 21:20:59 36° 71° (ENE) 21:25:01 437.345
AIST 2 06 May 21:18:16 21:22:04 34° 312° (NW) 21:25:52 435.215
AO-85 06 May 21:22:30 21:27:18 71° 239° (WSW) 21:31:37 145.980
PRISM 06 May 21:29:24 21:33:30 53° 101° (E) 21:37:35 437.425
RS-15 06 May 21:30:18 21:41:17 62° 114° (ESE) 21:52:53 29.354- 29.394
DELFI C3 06 May 21:30:27 21:33:43 25° 68° (ENE) 21:37:00 145.870
HUMSAT D 06 May 21:43:14 21:46:02 18° 65° (ENE) 21:48:49 437.325/437.525
CUTE 1.7 + AOD 2 06 May 21:48:24 21:51:12 17° 268° (W) 21:54:02 437.475
Oscar 11 06 May 21:49:58 21:54:17 89° 257° (WSW) 21:58:37 145.826/435.025
STRAND 1 06 May 21:53:01 21:57:06 25° 296° (WNW) 22:01:12 437.568
COMPASS 1 06 May 22:02:13 22:05:25 22° 266° (W) 22:08:39 437.405
YUBILEINY 06 May 22:02:16 22:05:54 13° 306° (NW) 22:09:34 435.215
FUNcube-1 06 May 22:07:53 22:12:22 70° 258° (WSW) 22:16:46 145.935
SEEDS 06 May 22:08:12 22:10:29 14° 269° (W) 22:12:46 437.485
HO-68 06 May 22:19:29 22:24:12 18° 270° (W) 22:28:57 435.675
AAUSAT CUBESAT 2 06 May 22:29:52 22:32:01 14° 270° (W) 22:34:10 437.432
PCSat 06 May 22:31:13 22:34:03 14° 35° (NE) 22:36:52 145.827
UWE-3 06 May 22:32:57 22:36:48 26° 265° (W) 22:40:37 435.000/436.395/437.385
Cosmos 2504 06 May 22:40:12 22:45:12 20° 296° (WNW) 22:50:14 435.465 / 435.565
CUBEBUG 1 06 May 22:48:22 22:50:37 14° 61° (ENE) 22:52:53 437.445
CUBEBUG 2 06 May 22:51:53 22:54:08 13° 270° (W) 22:56:21 437.445
ZACube-1 06 May 22:53:48 22:57:21 23° 266° (W) 23:00:52 437.345
ESTCUBE 1 06 May 22:59:26 23:03:04 25° 66° (ENE) 23:06:43 437.505/2401.250
DELFI C3 06 May 23:05:15 23:08:32 25° 265° (W) 23:11:50 145.870
PRISM 06 May 23:05:59 23:08:24 15° 297° (WNW) 23:10:49 437.425
UKube-1 06 May 23:06:37 23:09:15 16° 62° (ENE) 23:11:54 .
DX 1 06 May 23:07:53 23:11:04 20° 64° (ENE) 23:14:16 434.975-435.025
UNISAT 6 06 May 23:16:54 23:20:53 35° 97° (E) 23:24:47 437.425
HUMSAT D 06 May 23:17:22 23:21:21 43° 261° (W) 23:25:20 437.325/437.525
50 SAT 06 May 23:21:07 23:24:16 28° 70° (ENE) 23:27:26 437.505
VELOX 1 06 May 23:25:42 23:29:40 33° 69° (ENE) 23:33:41 145.980
SPROUT 06 May 23:28:30 23:30:44 14° 62° (ENE) 23:32:57 437.525
TIGRISAT 06 May 23:32:42 23:36:54 50° 99° (E) 23:41:01 435.000
NANOSAT C BR1 06 May 23:41:09 23:42:46 12° 90° (E) 23:44:23 145.865
RS-15 06 May 23:43:17 23:54:15 48° 320° (NW) 00:05:50 29.354- 29.394
GONETS M04 06 May 23:48:30 23:56:01 33° 83° (E) 00:03:32
AIST 1 06 May 23:48:41 23:52:03 23° 88° (E) 23:55:28
AISAT 06 May 23:57:54 00:02:20 76° 75° (ENE) 00:06:50 437.250
ANTELSAT 06 May 23:58:47 00:03:06 79° 285° (WNW) 00:07:21 437.575/2403.000
O/OREOS (USA 219) 07 May 00:12:29 00:16:58 61° 64° (ENE) 00:21:25 437.305
PCSat 07 May 00:13:09 00:18:34 64° 57° (ENE) 00:23:56 145.827
CUBEBUG 1 07 May 00:22:01 00:26:22 65° 258° (WSW) 00:30:47 437.445
DUCHIFAT 1 07 May 00:29:28 00:33:25 38° 98° (E) 00:37:20 145.980
ESTCUBE 1 07 May 00:35:39 00:39:43 34° 263° (W) 00:43:49 437.505/2401.250
QB50P2 07 May 00:36:09 00:40:19 54° 100° (E) 00:44:27 145.880/145.840
Cosmos 2499 07 May 00:37:39 00:43:40 31° 85° (E) 00:49:46 435.465 / 435.565
CUSAT 1 07 May 00:38:06 00:43:44 22° 64° (ENE) 00:49:42 437.405
POLYITAN 1 07 May 00:38:23 00:42:33 55° 101° (E) 00:46:40 437.675
POPSAT HIP 1 07 May 00:39:43 00:43:53 55° 100° (E) 00:48:00 437.405
UKube-1 07 May 00:40:39 00:44:52 53° 259° (W) 00:49:08 .
QB50P1 07 May 00:42:29 00:46:41 61° 101° (E) 00:50:50 145.935-145.965
DX 1 07 May 00:42:50 00:46:59 42° 261° (W) 00:51:09 434.975-435.025
BUGSAT 1 07 May 00:52:21 00:56:08 33° 97° (E) 00:59:52 437.445
UNISAT 6 07 May 00:54:07 00:57:24 21° 294° (WNW) 01:00:38 437.425
50 SAT 07 May 00:55:26 00:58:05 19° 266° (W) 01:00:44 437.505
SPROUT 07 May 01:01:54 01:06:10 62° 259° (WSW) 01:10:29 437.525
VELOX 1 07 May 01:02:32 01:06:10 25° 265° (W) 01:09:51 145.980
TIGRISAT 07 May 01:10:34 01:13:11 16° 297° (WNW) 01:15:47 435.000
NANOSAT C BR1 07 May 01:14:44 01:18:55 61° 286° (WNW) 01:23:02 145.865
TISAT 1 07 May 01:18:50 01:23:01 61° 74° (ENE) 01:27:14 437.305
AIST 1 07 May 01:25:36 01:29:28 31° 285° (WNW) 01:33:24
JAS-2 07 May 01:29:11 01:36:13 34° 93° (E) 01:43:05 435.910
BEESAT 3 07 May 01:34:18 01:37:13 19° 43° (NE) 01:40:08 437.485
AISAT 07 May 01:38:16 01:39:21 11° 271° (W) 01:40:26 437.250
Oscar 19 07 May 01:42:28 01:45:58 18° 91° (E) 01:49:26 437.125/150
GONETS M04 07 May 01:43:41 01:52:21 58° 284° (WNW) 02:01:03
ITUPSAT 1 07 May 01:50:02 01:53:58 27° 66° (ENE) 01:57:57 437.325
BEESAT 2 07 May 01:50:37 01:53:24 18° 41° (NE) 01:56:10 435.950
O/OREOS (USA 219) 07 May 01:53:36 01:55:49 14° 262° (W) 01:58:00 437.305
SWISSCUBE 07 May 01:56:32 02:00:48 34° 68° (ENE) 02:05:05 437.505
PCSat 07 May 01:57:41 02:01:26 19° 254° (WSW) 02:05:09 145.827
DANDE 07 May 02:01:04 02:07:38 42° 73° (ENE) 02:15:18 436.750
RS-15 07 May 02:01:14 02:10:45 26° 353° (N) 02:20:34 29.354- 29.394
DUCHIFAT 1 07 May 02:05:49 02:08:51 20° 295° (WNW) 02:11:53 145.980
QB50P2 07 May 02:13:17 02:15:42 15° 297° (WNW) 02:18:06 145.880/145.840
Gurwin Techsat 1B 07 May 02:14:20 02:17:16 15° 89° (E) 02:20:11 435.225
POLYITAN 1 07 May 02:15:33 02:17:54 15° 297° (WNW) 02:20:15 437.675
POPSAT HIP 1 07 May 02:16:53 02:19:14 15° 297° (WNW) 02:21:34 437.405
CUSAT 1 07 May 02:19:02 02:26:39 88° 260° (W) 02:34:45 437.405
QB50P1 07 May 02:19:51 02:21:58 14° 298° (WNW) 02:24:04 145.935-145.965
BUGSAT 1 07 May 02:28:06 02:31:20 22° 294° (WNW) 02:34:31 437.445
BEESAT 07 May 02:28:39 02:33:21 64° 73° (ENE) 02:38:04 436.000
Cosmos 2499 07 May 02:29:46 02:36:28 46° 285° (WNW) 02:43:21 435.465 / 435.565
TISAT 1 07 May 02:57:16 02:59:04 12° 270° (W) 03:00:52 437.305
ITAMSAT 1 07 May 03:10:56 03:14:44 20° 93° (E) 03:18:30 435.822/435.867
BEESAT 3 07 May 03:11:21 03:15:11 49° 241° (WSW) 03:18:59 437.485
JAS-2 07 May 03:13:49 03:21:25 56° 292° (WNW) 03:28:55 435.910
KKS-1 07 May 03:18:51 03:22:39 27° 67° (ENE) 03:26:27 437.445
Oscar 19 07 May 03:20:33 03:25:40 59° 288° (WNW) 03:30:45 437.125/150
STARS 07 May 03:23:51 03:26:43 17° 63° (ENE) 03:29:35 437.465
ITUPSAT 1 07 May 03:27:19 03:31:40 35° 263° (W) 03:36:03 437.325
BEESAT 2 07 May 03:27:40 03:31:35 57° 241° (WSW) 03:35:29 435.950
SWISSCUBE 07 May 03:34:37 03:38:37 27° 265° (W) 03:42:39 437.505
DANDE 07 May 03:43:51 03:50:30 45° 268° (W) 03:58:12 436.750
GONETS M04 07 May 03:48:22 03:51:28 12° 308° (NW) 03:54:35
Gurwin Techsat 1B 07 May 03:52:26 03:57:46 73° 286° (WNW) 04:03:03 435.225
MOZHAYETS 4 07 May 03:55:29 03:59:45 41° 71° (ENE) 04:04:02
AIST 2 07 May 04:00:11 04:03:43 26° 46° (NE) 04:07:14 435.215
CUSAT 1 07 May 04:02:52 04:07:57 19° 277° (W) 04:13:12 437.405
BEESAT 07 May 04:09:00 04:11:34 14° 270° (W) 04:14:08 436.000
YUBILEINY 07 May 04:12:24 04:17:09 15° 56° (ENE) 04:21:51 435.215
RS-15 07 May 04:17:22 04:28:12 35° 28° (NNE) 04:39:10 29.354- 29.394
ITAMSAT 1 07 May 04:49:27 04:54:30 53° 289° (WNW) 04:59:31 435.822/435.867
AO-7 07 May 04:52:48 05:00:58 55° 102° (ESE) 05:09:06 29.400- 29.500
KKS-1 07 May 04:55:10 04:59:07 30° 264° (W) 05:03:07 437.445
STARS 07 May 04:58:21 05:02:40 52° 260° (W) 05:07:02 437.465
JAS-2 07 May 05:01:28 05:04:48 13° 311° (NW) 05:08:10 435.910
Cosmos 2491 07 May 05:03:26 05:06:43 13° 72° (ENE) 05:10:01 435.465 / 435.565
ISS 07 May 05:26:05 05:28:01 15° 132° (SE) 05:29:58 145.825
MOZHAYETS 4 07 May 05:33:41 05:37:05 21° 267° (W) 05:40:30
Gurwin Techsat 1B 07 May 05:35:23 05:36:46 11° 305° (NW) 05:38:10 435.225
AIST 2 07 May 05:38:29 05:42:16 35° 244° (WSW) 05:46:03 435.215
CUBESAT XI-V 07 May 05:53:12 05:57:47 77° 75° (ENE) 06:02:26 437.345
YUBILEINY 07 May 06:07:01 06:15:45 71° 80° (E) 06:24:27 435.215
NOAA 18 07 May 06:08:15 06:10:38 13° 89° (E) 06:13:02 137.9125
HORYU 2 07 May 06:11:42 06:16:09 85° 104° (ESE) 06:20:33 437.375
SO-50 07 May 06:14:52 06:19:23 38° 116° (ESE) 06:23:55 436.795
RS-15 07 May 06:30:24 06:42:46 84° 55° (NE) 06:55:08 29.354- 29.394
Cosmos 2504 07 May 06:34:03 06:40:39 30° 69° (ENE) 06:47:34 435.465 / 435.565
BRITE-PL 07 May 06:45:28 06:50:12 27° 92° (E) 06:54:48 437.365/2234.400
AO-7 07 May 06:46:01 06:53:27 38° 302° (WNW) 07:00:53 29.400- 29.500
LilacSat-2 07 May 06:51:48 06:54:35 19° 93° (E) 06:57:20 437.200
Cosmos 2491 07 May 06:53:02 07:01:44 68° 93° (E) 07:10:30 435.465 / 435.565
CUTE-I 07 May 06:53:06 06:57:33 26° 95° (E) 07:02:00 437.470
ISS 07 May 07:00:52 07:04:07 72° 329° (NNW) 07:07:23 145.825
NOAA 15 07 May 07:19:00 07:24:19 67° 103° (ESE) 07:29:35 137.62
STRAND 1 07 May 07:30:05 07:35:09 70° 73° (ENE) 07:40:13 437.568
GOMX 1 07 May 07:32:21 07:37:13 34° 94° (E) 07:41:48 467.674
CUBESAT XI-V 07 May 07:34:29 07:35:44 11° 272° (W) 07:37:00 437.345
Cubesat XI-IV 07 May 07:38:31 07:43:51 67° 102° (ESE) 07:49:09 437.490
M-CUBED/EXP-1 PRIME 07 May 07:38:59 07:40:00 11° 94° (E) 07:41:00 437.505
NOAA 18 07 May 07:46:30 07:51:59 85° 287° (WNW) 07:57:26 137.9125
HORYU 2 07 May 07:50:49 07:52:01 11° 301° (WNW) 07:53:13 437.375
AUBIESAT-1 07 May 07:52:36 07:54:23 13° 95° (E) 07:56:05 437.475
SO-50 07 May 07:55:28 07:59:55 33° 314° (NW) 08:04:23 436.795
HO-68 07 May 07:57:33 08:01:01 14° 87° (E) 08:04:27 435.675
YUBILEINY 07 May 08:05:02 08:11:42 26° 280° (W) 08:18:23 435.215
PHONESAT 2.4 07 May 08:13:21 08:15:13 15° 153° (SSE) 08:17:07 2401.200-2431.200
PRISM 07 May 08:19:45 08:23:37 42° 71° (ENE) 08:27:31 437.425
BRITE-PL 07 May 08:23:24 08:28:51 47° 290° (WNW) 08:34:07 437.365/2234.400
LilacSat-2 07 May 08:25:36 08:28:56 30° 290° (WNW) 08:32:16 437.200
Cosmos 2504 07 May 08:26:53 08:34:24 59° 268° (W) 08:42:29 435.465 / 435.565
CUTE-I 07 May 08:32:45 08:37:44 42° 292° (WNW) 08:42:42 437.470
ISS 07 May 08:38:22 08:40:59 22° 348° (NNW) 08:43:37 145.825
DOVE 4 07 May 08:41:19 08:46:23 75° 101° (E) 08:51:08 437.250
RS-15 07 May 08:44:07 08:53:56 30° 258° (WSW) 09:03:45 29.354- 29.394
CINEMA 3 07 May 08:49:11 08:53:03 27° 94° (E) 08:56:45 145.822/145.860
Cosmos 2491 07 May 08:51:56 08:59:18 29° 294° (WNW) 09:06:44 435.465 / 435.565
CANX-2 07 May 08:58:47 09:02:43 37° 97° (E) 09:06:39 2200.000
NOAA 15 07 May 08:59:59 09:03:33 18° 300° (WNW) 09:07:05 137.62
CUBEBUG 2 07 May 09:04:38 09:06:12 12° 89° (E) 09:07:45 437.445
GOMX 1 07 May 09:10:25 09:15:12 33° 293° (WNW) 09:19:47 467.674
M-CUBED/EXP-1 PRIME 07 May 09:11:17 09:15:01 51° 293° (WNW) 09:18:28 437.505
STRAND 1 07 May 09:12:05 09:14:50 14° 270° (W) 09:17:35 437.568
Cubesat XI-IV 07 May 09:19:51 09:23:23 18° 300° (WNW) 09:26:54 437.490
ANTELSAT 07 May 09:24:47 09:26:32 12° 61° (ENE) 09:28:16 437.575/2403.000
AUBIESAT-1 07 May 09:25:37 09:29:13 42° 294° (WNW) 09:32:33 437.475
NOAA 18 07 May 09:29:16 09:31:49 13° 304° (NW) 09:34:22 137.9125
CUTE 1.7 + AOD 2 07 May 09:30:25 09:34:39 74° 101° (E) 09:38:53 437.475
Oscar 11 07 May 09:37:23 09:39:56 15° 91° (E) 09:42:30 145.826/435.025
HO-68 07 May 09:42:35 09:49:47 80° 106° (ESE) 09:56:57 435.675
COMPASS 1 07 May 09:42:49 09:46:54 52° 99° (E) 09:50:58 437.405
PHONESAT 2.4 07 May 09:48:37 09:51:36 40° 169° (S) 09:54:35 2401.200-2431.200
SEEDS 07 May 09:48:38 09:52:50 86° 99° (E) 09:57:04 437.485
FUNcube-1 07 May 09:55:51 09:58:50 19° 93° (E) 10:01:49 145.935
PRISM 07 May 09:56:35 09:59:09 16° 268° (W) 10:01:45 437.425
GONETS M04 07 May 09:57:31 10:02:48 17° 58° (ENE) 10:08:01
AAUSAT CUBESAT 2 07 May 10:08:37 10:12:48 84° 102° (ESE) 10:16:58 437.432
ISS 07 May 10:15:45 10:18:16 20° 8° (N) 10:20:45 145.825
UNISAT 6 07 May 10:16:21 10:20:37 38° 70° (ENE) 10:24:47 437.425
DOVE 4 07 May 10:20:37 10:23:22 15° 301° (WNW) 10:26:02 437.250
UWE-3 07 May 10:20:50 10:25:00 58° 100° (E) 10:29:05 435.000/436.395/437.385
CINEMA 3 07 May 10:26:13 10:30:10 29° 292° (WNW) 10:33:57 145.822/145.860
Cosmos 2499 07 May 10:27:15 10:30:33 13° 58° (ENE) 10:33:56 435.465 / 435.565
TIGRISAT 07 May 10:31:51 10:36:19 52° 73° (ENE) 10:40:43 435.000
NANOSAT C BR1 07 May 10:35:00 10:36:30 12° 61° (ENE) 10:38:01 145.865
CANX-2 07 May 10:35:12 10:38:21 21° 294° (WNW) 10:41:29 2200.000
CUBEBUG 2 07 May 10:39:04 10:43:18 61° 286° (WNW) 10:47:24 437.445
ZACube-1 07 May 10:40:03 10:44:13 63° 101° (E) 10:48:18 437.345
DELFI C3 07 May 10:41:13 10:44:55 35° 97° (E) 10:48:37 145.870
ANTELSAT 07 May 10:58:01 11:02:38 81° 259° (WSW) 11:07:11 437.575/2403.000
HUMSAT D 07 May 10:59:56 11:03:22 25° 95° (E) 11:06:46 437.325/437.525
CUTE 1.7 + AOD 2 07 May 11:08:32 11:09:55 11° 299° (WNW) 11:11:17 437.475
Oscar 11 07 May 11:12:12 11:16:22 49° 288° (WNW) 11:20:31 145.826/435.025
COMPASS 1 07 May 11:19:41 11:22:03 15° 296° (WNW) 11:24:25 437.405
DUCHIFAT 1 07 May 11:22:15 11:26:04 33° 70° (ENE) 11:29:54 145.980
PHONESAT 2.4 07 May 11:25:11 11:28:14 48° 186° (S) 11:31:16 2401.200-2431.200
QB50P2 07 May 11:29:30 11:33:36 46° 72° (ENE) 11:37:43 145.880/145.840
AIST 1 07 May 11:30:49 11:35:14 68° 80° (E) 11:39:37
FUNcube-1 07 May 11:31:24 11:35:14 36° 290° (WNW) 11:39:01 145.935
HO-68 07 May 11:31:30 11:36:44 23° 305° (NW) 11:41:59 435.675
POLYITAN 1 07 May 11:31:43 11:35:49 47° 72° (ENE) 11:39:58 437.675
POPSAT HIP 1 07 May 11:32:55 11:37:01 47° 72° (ENE) 11:41:09 437.405
QB50P1 07 May 11:35:35 11:39:44 51° 72° (ENE) 11:43:54 145.935-145.965
AO-85 07 May 11:36:48 11:41:41 35° 114° (ESE) 11:46:33 145.980
BUGSAT 1 07 May 11:42:59 11:46:36 28° 68° (ENE) 11:50:15 437.445
JAS-2 07 May 11:44:43 11:48:38 17° 52° (NE) 11:52:48 435.910
AISAT 07 May 11:48:49 11:50:59 13° 90° (E) 11:53:09 437.250
ISS 07 May 11:52:02 11:55:15 52° 28° (NNE) 11:58:27 145.825
GONETS M04 07 May 11:52:29 12:01:18 77° 81° (E) 12:09:59
UNISAT 6 07 May 11:53:48 11:57:25 22° 266° (W) 12:01:00 437.425
UWE-3 07 May 11:58:52 12:00:59 14° 298° (WNW) 12:03:06 435.000/436.395/437.385
NANOSAT C BR1 07 May 12:07:23 12:11:38 75° 257° (WSW) 12:15:56 145.865
CUBEBUG 1 07 May 12:10:12 12:13:38 21° 94° (E) 12:17:02 437.445
TIGRISAT 07 May 12:10:21 12:13:17 17° 268° (W) 12:16:11 435.000
DELFI C3 07 May 12:16:43 12:19:34 19° 294° (WNW) 12:22:25 145.870
Cosmos 2499 07 May 12:17:25 12:25:15 65° 79° (E) 12:33:38 435.465 / 435.565
ZACube-1 07 May 12:18:12 12:19:59 13° 298° (WNW) 12:21:45 437.345
50 SAT 07 May 12:23:06 12:26:24 31° 97° (E) 12:29:41 437.505
ESTCUBE 1 07 May 12:26:32 12:30:54 45° 99° (E) 12:35:15 437.505/2401.250
UKube-1 07 May 12:27:11 12:30:38 23° 94° (E) 12:34:04 .
DX 1 07 May 12:29:59 12:33:51 29° 96° (E) 12:37:41 434.975-435.025
HUMSAT D 07 May 12:35:31 12:38:57 26° 292° (WNW) 12:42:22 437.325/437.525
SPROUT 07 May 12:47:36 12:50:50 20° 93° (E) 12:54:01 437.525
VELOX 1 07 May 12:50:33 12:54:58 57° 100° (E) 12:59:21 145.980
DUCHIFAT 1 07 May 12:58:27 13:01:49 22° 266° (W) 13:05:12 145.980
Oscar 19 07 May 12:59:57 13:04:24 30° 66° (ENE) 13:08:52 437.125/150
PHONESAT 2.4 07 May 13:02:12 13:04:44 22° 202° (SSW) 13:07:16 2401.200-2431.200
SO-50 07 May 13:06:53 13:08:04 11° 27° (NNE) 13:09:15 436.795
QB50P2 07 May 13:06:55 13:09:38 16° 268° (W) 13:12:23 145.880/145.840
POLYITAN 1 07 May 13:09:12 13:11:53 16° 268° (W) 13:14:35 437.675
POPSAT HIP 1 07 May 13:10:23 13:13:03 16° 268° (W) 13:15:45 437.405
AIST 1 07 May 13:11:01 13:12:11 11° 278° (W) 13:13:22
QB50P1 07 May 13:13:22 13:15:49 15° 269° (W) 13:18:16 145.935-145.965
AO-85 07 May 13:16:59 13:22:09 42° 312° (NW) 13:27:14 145.980
BUGSAT 1 07 May 13:18:18 13:21:55 27° 264° (W) 13:25:35 437.445
AISAT 07 May 13:23:27 13:27:53 62° 287° (WNW) 13:32:16 437.250
JAS-2 07 May 13:26:11 13:32:24 81° 73° (ENE) 13:39:32 435.910
ISS 07 May 13:28:55 13:31:30 21° 225° (SW) 13:34:04 145.825
Gurwin Techsat 1B 07 May 13:35:52 13:40:16 27° 65° (ENE) 13:44:42 435.225
CUBEBUG 1 07 May 13:45:56 13:50:02 37° 290° (WNW) 13:54:06 437.445
GONETS M04 07 May 13:50:45 13:57:06 23° 281° (W) 14:03:26
50 SAT 07 May 13:57:25 13:59:59 18° 293° (WNW) 14:02:33 437.505
UKube-1 07 May 14:02:49 14:06:45 34° 291° (WNW) 14:10:40 .
AO-7 07 May 14:03:53 14:09:24 20° 48° (NE) 14:14:56 29.400- 29.500
ESTCUBE 1 07 May 14:04:07 14:07:24 20° 296° (WNW) 14:10:40 437.505/2401.250
DX 1 07 May 14:06:15 14:09:57 27° 293° (WNW) 14:13:37 434.975-435.025
Cosmos 2499 07 May 14:11:29 14:17:48 27° 277° (W) 14:24:29 435.465 / 435.565
SPROUT 07 May 14:22:56 14:26:53 36° 290° (WNW) 14:30:49 437.525
O/OREOS (USA 219) 07 May 14:25:29 14:29:59 59° 110° (ESE) 14:34:31 437.305
VELOX 1 07 May 14:28:17 14:30:59 16° 298° (WNW) 14:33:41 145.980
BEESAT 07 May 14:29:07 14:31:48 15° 91° (E) 14:34:28 436.000
ITAMSAT 1 07 May 14:29:39 14:34:17 35° 67° (ENE) 14:38:57 435.822/435.867
TISAT 1 07 May 14:37:14 14:41:28 85° 288° (WNW) 14:45:40 437.305
Oscar 19 07 May 14:38:50 14:43:35 36° 263° (W) 14:48:24 437.125/150
SO-50 07 May 14:45:15 14:49:49 45° 49° (NE) 14:54:14 436.795
PCSat 07 May 14:55:46 15:00:55 47° 114° (ESE) 15:06:07 145.827
AO-85 07 May 15:02:12 15:04:03 12° 333° (NNW) 15:05:53 145.980
JAS-2 07 May 15:14:23 15:18:26 17° 275° (W) 15:22:49 435.910
DANDE 07 May 15:14:27 15:17:02 21° 86° (E) 15:20:09 436.750
Gurwin Techsat 1B 07 May 15:15:01 15:20:01 42° 262° (W) 15:25:03 435.225
CUSAT 1 07 May 15:24:37 15:28:32 90° 321° (NW) 15:33:50 437.405
ITUPSAT 1 07 May 15:26:08 15:30:50 53° 100° (E) 15:35:30 437.325
SWISSCUBE 07 May 15:32:38 15:37:25 71° 103° (ESE) 15:42:11 437.505
HORYU 2 07 May 15:38:22 15:39:01 10° 58° (ENE) 15:39:40 437.375
AO-7 07 May 15:52:39 16:00:55 79° 69° (ENE) 16:09:14 29.400- 29.500
BEESAT 07 May 16:05:17 16:10:00 62° 288° (WNW) 16:14:41 436.000
O/OREOS (USA 219) 07 May 16:06:44 16:09:48 17° 308° (NW) 16:12:53 437.305
ITAMSAT 1 07 May 16:09:13 16:13:45 31° 264° (W) 16:18:19 435.822/435.867
SO-50 07 May 16:26:19 16:30:01 24° 248° (WSW) 16:33:38 436.795
PCSat 07 May 16:39:46 16:44:30 30° 313° (NW) 16:49:16 145.827
KKS-1 07 May 16:44:27 16:48:45 45° 99° (E) 16:53:01 437.445
STARS 07 May 16:47:04 16:50:44 25° 95° (E) 16:54:22 437.465
DANDE 07 May 16:57:09 16:59:49 21° 295° (WNW) 17:03:02 436.750
Cosmos 2491 07 May 17:02:26 17:10:23 35° 69° (ENE) 17:18:12 435.465 / 435.565
NOAA 15 07 May 17:02:54 17:06:14 17° 59° (ENE) 17:09:34 137.62
BEESAT 3 07 May 17:03:44 17:06:37 20° 113° (ESE) 17:09:32 437.485
ITUPSAT 1 07 May 17:04:58 17:08:16 19° 298° (WNW) 17:11:33 437.325
HORYU 2 07 May 17:10:23 17:14:52 88° 71° (ENE) 17:19:21 437.375
CUSAT 1 07 May 17:11:29 17:12:03 10° 307° (NW) 17:12:40 437.405
SWISSCUBE 07 May 17:12:01 17:14:39 15° 300° (WNW) 17:17:16 437.505
YUBILEINY 07 May 17:17:37 17:22:08 15° 74° (ENE) 17:26:39 435.215
BEESAT 2 07 May 17:21:36 17:24:21 18° 112° (ESE) 17:27:07 435.950
Cubesat XI-IV 07 May 17:24:02 17:27:29 18° 60° (ENE) 17:30:57 437.490
MOZHAYETS 4 07 May 17:26:00 17:30:37 85° 105° (ESE) 17:35:12
NOAA 18 07 May 17:34:28 17:39:08 30° 64° (ENE) 17:43:50 137.9125
LilacSat-2 07 May 17:36:03 17:37:47 13° 64° (ENE) 17:39:32 437.200
AO-7 07 May 17:48:16 17:54:30 23° 268° (W) 18:00:47 29.400- 29.500
CUBESAT XI-V 07 May 17:49:36 17:52:51 18° 92° (E) 17:56:06 437.345
